Location: Watson Lake
(60.1170°N, 128.8000°W)
Time: 02:31:13
(UTC-07:00)

Daily predictions for brighter satellites

Satellite Brightness Start Highest point End
(mag) Time Altitude Azimuth Time Altitude Azimuth Time Altitude Azimuth
Cosmos 2278 Rocket 3.7 00:00:03 10° NW 00:04:39 26° WSW 00:09:11 10° SSW
ALOS 2 3.1 00:02:52 18° SE 00:05:54 53° ENE 00:10:12 10° N
Iridium 4 Rocket 3.8 00:01:55 10° NNW 00:05:57 46° W 00:09:30 13° SSW
Cosmos 44 3.4 00:03:11 10° WNW 00:07:40 66° NNE 00:12:00 10° ESE
Cosmos 2237 Rocket 2.3 00:03:49 10° SSW 00:09:22 59° ESE 00:14:58 10° NE
Cosmos 2333 4.4 00:05:29 10° SW 00:11:16 80° NW 00:17:07 10° NE
CENTAUR R/B 3.2 00:04:26 10° WNW 00:11:29 70° N 00:19:28 10° E
NOSS 3-2 (C) 3.9 00:04:50 10° WNW 00:11:50 84° NNE 00:19:38 10° ESE
Cosmos 2333 Rocket 2.2 00:07:15 10° SSW 00:13:00 74° SE 00:18:49 10° NE
Cosmos 1553 Rocket 4.3 00:11:46 10° SSW 00:17:59 66° WNW 00:24:09 10° N
CZ-4C R/B 4.2 00:16:55 10° WNW 00:22:16 24° WSW 00:27:24 12° SSW
Cosmos 1125 Rocket 3.6 00:17:06 10° NW 00:22:27 76° WSW 00:26:01 21° SSE
Cosmos 372 Rocket 4.0 00:18:01 10° NNW 00:23:20 87° WSW 00:26:56 21° SSE
Cosmos 1763 Rocket 4.0 00:21:40 21° S 00:24:49 44° ESE 00:29:50 10° NE
Cosmos 2315 Rocket 4.0 00:21:24 18° S 00:26:05 72° E 00:32:20 10° NNE
SL-24 DEB 4.4 00:23:14 19° S 00:26:28 69° W 00:31:07 10° N
Meteor 1-12 Rocket 4.4 00:21:19 10° NNW 00:27:14 80° WSW 00:31:26 20° S
NOSS 3-1 (C) 3.5 00:22:43 10° SW 00:28:47 66° SE 00:35:46 10° ENE
COSMOS 2455 3.4 00:23:18 10° NW 00:29:18 61° NNE 00:35:16 10° ESE
CZ-4C R/B 4.0 00:29:50 20° SE 00:31:54 40° ENE 00:35:21 10° N
Genesis I 3.5 00:28:27 10° WNW 00:32:24 68° NNE 00:36:23 10° ESE
Cosmos 2219 Rocket 2.3 00:28:02 10° SW 00:33:41 79° NW 00:39:23 10° NE
USA 229 DEB 3.8 00:28:37 10° WSW 00:35:33 87° NNW 00:42:42 10° ENE
USA 229 3.8 00:28:44 10° WSW 00:35:40 87° NNW 00:42:49 10° ENE
Cosmos 1378 Rocket 3.9 00:33:23 16° SSW 00:36:56 67° WNW 00:41:24 10° N
Cosmos 1346 Rocket 4.1 00:33:42 10° SW 00:37:26 38° WNW 00:41:14 10° N
Cosmos 1544 Rocket 3.8 00:35:38 10° NNW 00:40:02 61° W 00:42:39 23° S
USA 267 3.2 00:35:04 10° E 00:41:38 71° S 00:48:11 10° W
deb Chang Zheng 4 4.3 00:37:50 10° NNE 00:42:08 51° WNW 00:46:23 10° SW
NOSS 3-1 (A) 3.6 00:39:31 10° SW 00:45:36 65° SE 00:52:35 10° ENE
Terra 3.8 00:42:14 10° SW 00:45:47 20° W 00:49:21 10° NW
CZ-2C R/B 2.9 00:42:48 23° SSE 00:45:52 86° WSW 00:51:00 10° NNW
Cosmos 1814 Rocket 3.9 00:42:17 18° SSW 00:46:04 71° ESE 00:51:15 10° NE
Cosmos 2184 Rocket 4.1 00:39:43 10° NNW 00:46:08 87° WSW 00:50:36 21° S
Cosmos 724 4.4 00:40:17 10° WNW 00:46:32 83° NNE 00:52:36 10° ESE
ATLAS 2AS CENTAUR R/B 3.7 00:42:54 19° S 00:47:40 37° ESE 00:54:53 10° ENE
Cosmos 2327 Rocket 4.4 00:41:50 10° NNW 00:47:59 88° W 00:52:09 22° S
Cosmos 1437 Rocket 4.5 00:44:59 10° N 00:48:19 26° ENE 00:51:17 12° ESE
Cosmos 1812 2.7 00:46:41 26° SSW 00:48:50 88° E 00:52:45 10° NNE
Cosmos 2263 4.3 00:43:31 10° NW 00:49:21 86° NE 00:53:54 17° SE
NOSS 3-2 (A) 3.9 00:43:44 10° WNW 00:50:47 75° SW 00:58:29 11° SE
Okean 3 4.2 00:47:58 14° SW 00:51:23 49° WNW 00:55:30 10° N
Cosmos 1666 2.9 00:47:49 10° N 00:51:42 65° ENE 00:53:41 27° SSE
Cosmos 1743 2.6 00:47:56 10° NNW 00:51:47 89° NE 00:53:41 29° SSE
CZ-4B R/B 3.7 00:49:09 10° NNE 00:53:53 65° WNW 00:57:58 14° SW
Cosmos 1461 2.7 00:50:19 10° WNW 00:54:22 73° SW 00:56:57 22° SE
Cosmos 540 Rocket 4.4 00:52:21 22° SSE 00:54:46 33° ESE 00:59:21 10° NE
Cosmos 468 Rocket 4.1 00:50:55 12° SSW 00:55:49 85° WNW 01:01:13 10° NNE
Geosat 4.0 00:50:49 10° NE 00:55:54 86° SE 01:00:37 12° SW
ATLAS CENTAUR R/B 1.9 00:55:01 27° S 00:56:30 37° SE 01:00:12 10° ENE
Cosmos 1975 3.4 00:52:45 10° NNW 00:56:37 48° W 00:58:43 24° SSW
Meteor 1-18 Rocket 4.3 00:55:36 20° S 00:59:44 82° ESE 01:05:43 10° NNE
Cosmos 2369 Rocket 2.2 00:54:48 10° NW 01:00:24 71° SW 01:04:07 22° SSE
Aureole 2 Rocket 3.5 01:02:40 11° WSW 01:05:02 34° NW 01:07:40 10° NNE
ATLAS 3B R/B 3.3 00:59:34 10° WNW 01:05:53 39° SW 01:09:36 22° S
Cosmos 1943 Rocket 2.2 01:01:45 10° NW 01:07:29 87° NE 01:12:00 17° SE
Cosmos 1455 Rocket 3.9 01:04:33 10° NNW 01:08:47 42° W 01:11:19 21° SSW
Cosmos 2322 Rocket 4.4 01:03:56 10° WNW 01:08:51 29° N 01:13:46 10° NE
Cosmos 841 Rocket 3.5 01:06:47 22° SSW 01:10:09 69° ESE 01:15:21 10° NE
CZ-4B R/B 1.6 01:10:57 29° SE 01:12:28 62° ENE 01:15:43 10° N
USA 81 4.4 01:09:59 18° SSW 01:13:50 62° WNW 01:19:06 10° N
Cosmos 44 Rocket 3.3 01:09:11 10° WNW 01:13:53 59° SW 01:16:41 23° SSE
Cosmos 2341 Rocket 4.1 01:08:20 10° NNW 01:14:35 72° ENE 01:19:05 20° SSE
Cosmos 1238 Rocket 4.3 01:11:14 21° SSE 01:14:41 49° E 01:20:46 10° NNE
Cosmos 2074 Rocket 4.3 01:09:10 10° NNW 01:15:16 60° W 01:19:26 21° SSW
Cosmos 2360 Rocket 4.0 01:10:32 10° W 01:15:41 34° NNW 01:20:52 10° NE
Cosmos 1980 Rocket 4.4 01:13:23 10° NW 01:18:18 28° N 01:23:13 10° ENE
COSMOS 2428 4.0 01:12:53 10° WSW 01:18:20 43° NNW 01:23:49 10° NE
Cosmos 1689 Rocket 2.5 01:17:23 31° SE 01:18:45 66° ENE 01:21:57 10° NNW
DNEPR-1 R/B 4.2 01:18:53 10° WNW 01:23:21 58° NNE 01:27:31 10° E
Cosmos 371 Rocket 3.3 01:21:36 20° SSW 01:25:04 90° S 01:30:00 10° NNE
Cosmos 2154 Rocket 4.0 01:19:23 10° NNW 01:25:41 83° W 01:29:56 22° S
Cosmos 1980 4.2 01:20:48 10° WSW 01:26:24 61° NW 01:32:03 10° NE
Landsat 5 3.5 01:24:16 26° SSE 01:26:33 85° ENE 01:30:52 10° NNW
Cosmos 1340 3.5 01:24:32 19° SW 01:27:00 46° WNW 01:30:43 10° N
Cosmos 304 Rocket 4.3 01:26:02 25° SSE 01:28:24 45° ESE 01:33:01 10° NE
Cosmos 2058 Rocket 3.7 01:25:51 10° N 01:30:09 50° ENE 01:33:07 19° SE
USA 238 DEB 4.4 01:24:09 10° WNW 01:30:33 38° SW 01:34:30 22° S
USA 238 4.4 01:24:15 10° WNW 01:30:40 39° SW 01:34:37 22° S
Spot 2 4.1 01:27:44 10° NNE 01:32:03 72° ESE 01:34:33 26° S
Cosmos 405 Rocket 3.3 01:30:45 27° SSE 01:32:15 43° E 01:35:48 10° NNE
SL-16 R/B 2.2 01:27:45 16° SW 01:32:28 88° SE 01:38:13 10° NE
Okean 1-7 Rocket 4.2 01:30:35 24° SSE 01:32:50 45° E 01:37:04 10° NNE
Cosmos 2285 Rocket 4.1 01:28:00 13° SW 01:33:48 78° NW 01:40:13 10° NNE
NOSS 0 Rocket 4.5 01:31:15 10° WSW 01:37:21 60° NW 01:43:29 10° NE
Okean 1 3.9 01:37:09 22° SW 01:39:33 52° WNW 01:43:29 10° N
Cosmos 405 3.0 01:36:17 10° NNW 01:39:56 88° ENE 01:41:35 31° SSE
SL-16 R/B 4.4 01:35:24 10° WNW 01:40:16 28° N 01:45:08 10° NE
Cosmos 1975 Rocket 4.4 01:37:28 12° SW 01:41:09 34° WNW 01:45:18 10° N
Cosmos 1437 3.0 01:40:58 35° SSE 01:42:02 56° ESE 01:45:14 10° NNE
Meteor 2-9 Rocket 4.2 01:36:55 10° NNW 01:42:13 64° W 01:45:23 24° S
ALOS 2 3.8 01:40:15 20° SW 01:42:28 31° W 01:46:25 10° NNW
Cosmos 1656 Rocket 3.7 01:37:59 10° NW 01:43:27 81° NE 01:48:42 11° SE
SAR-Lupe-2 4.0 01:42:42 30° SSW 01:44:02 47° WSW 01:47:30 10° NNW
Cosmos 1346 4.2 01:43:58 26° ESE 01:44:35 29° E 01:47:05 10° NE
CZ-2C R/B 2.7 01:39:44 10° NNE 01:45:15 87° WNW 01:49:01 22° SSW
COS B Rocket 1.7 01:43:08 10° N 01:45:34 84° E 01:45:47 70° SSE
Cosmos 332 Rocket 4.2 01:41:44 13° SW 01:45:57 60° NW 01:50:45 10° NNE
Cosmos 44 3.4 01:44:34 10° WNW 01:48:47 43° SW 01:50:39 27° S
Cosmos 2237 Rocket 3.1 01:48:05 10° WSW 01:53:38 50° NW 01:59:12 10° NE
ARGOS Delta rocket 3.7 01:51:01 10° NNE 01:55:32 88° WNW 01:58:14 25° SSW
Cosmos 2228 3.2 01:53:15 10° NNW 01:57:41 70° ENE 02:00:34 21° SSE
Cosmos 2333 Rocket 3.4 01:52:11 10° WSW 01:57:43 44° NNW 02:03:16 10° NE
SL-24 R/B 4.5 01:56:19 19° SSE 01:59:35 71° ENE 02:04:33 10° NNW
Cosmos 374 Rocket 4.2 01:56:39 10° WNW 02:00:51 66° SW 02:04:10 13° SE
Cosmos 1536 Rocket 4.1 01:59:10 20° SW 02:01:56 51° WNW 02:06:14 10° N
CENTAUR R/B 3.0 01:55:15 10° WNW 02:02:38 82° SSW 02:10:52 10° SE
NOSS 3-2 (C) 4.1 01:55:47 10° WNW 02:02:41 51° SW 02:09:26 13° SSE
CZ-4C R/B 4.3 02:03:44 23° SW 02:05:01 29° W 02:08:15 10° NNW
Cosmos 1763 Rocket 4.2 02:01:39 11° SW 02:06:38 53° NW 02:11:52 10° NNE
Iridium 2 4.4 02:03:54 10° N 02:07:42 49° ENE 02:10:14 19° SE
Cosmos 1606 Rocket 3.7 02:04:37 10° NNW 02:09:01 61° W 02:11:21 26° S
Genesis I 3.7 02:06:16 10° WNW 02:09:59 39° SW 02:11:25 28° S
Cosmos 2366 rocket 4.1 02:04:19 10° NNW 02:10:43 83° ENE 02:15:40 17° SSE
NOSS 2-3 (D) 4.3 02:07:17 20° SW 02:10:53 62° SE 02:17:08 10° ENE
Cosmos 2218 Rocket 4.0 02:05:04 10° NNW 02:11:21 90° NE 02:16:02 19° SSE
Orbus 7S? 4.1 02:03:03 10° W 02:11:28 61° SSW 02:15:14 10° ESE
COSMOS 2455 2.9 02:09:26 10° NW 02:15:23 60° SW 02:20:33 14° SSE
Cosmos 1441 Rocket 3.3 02:15:21 27° S 02:17:17 65° ESE 02:21:07 10° NNE
H-2A R/B 2.6 02:13:55 10° NNE 02:17:42 54° ESE 02:19:42 25° S
Cosmos 2219 Rocket 3.8 02:13:15 10° W 02:18:25 35° NNW 02:23:37 10° NE
NOSS 3-1 (C) 4.0 02:13:23 10° W 02:19:48 73° NNW 02:27:12 10° ENE
Cosmos 1953 4.4 02:16:46 10° N 02:20:07 25° ENE 02:23:28 10° ESE
Meteor 1-4 Rocket 3.5 02:16:39 10° N 02:20:23 49° ENE 02:23:32 14° SE
Cosmos 2181 Rocket 4.1 02:16:24 21° S 02:20:59 79° E 02:27:26 10° NNE
SL-8 Rocket 4.0 02:14:51 10° NNW 02:21:01 72° W 02:25:24 20° S
Cosmos 1371 Rocket 4.2 02:17:29 10° NNW 02:22:54 78° NE 02:28:17 10° SE
Nadezhda 1 Rocket 4.4 02:20:02 18° SW 02:24:40 59° WNW 02:30:56 10° N
Meteor 2-4 Rocket 3.7 02:21:17 22° SSW 02:24:55 79° WNW 02:30:30 10° NNE
Cosmos 1437 Rocket 3.0 02:21:07 10° NNW 02:24:55 53° W 02:26:44 27° SSW
USA 267 3.3 02:18:44 10° ESE 02:25:10 57° SSW 02:31:38 10° W
Cosmos 1943 3.5 02:22:07 22° S 02:25:40 57° ESE 02:31:13 10° NE
Cosmos 1538 Rocket 4.4 02:23:10 22° S 02:26:19 52° ESE 02:31:21 10° NE
USA 229 DEB 4.2 02:20:04 10° W 02:27:03 68° N 02:34:12 10° E
USA 229 4.2 02:20:11 10° W 02:27:09 68° N 02:34:17 10° E
Cosmos 1697 Rocket 4.1 02:23:09 10° NW 02:28:30 41° NNE 02:33:48 10° E
Cosmos 921 Rocket 3.9 02:24:45 10° NNW 02:29:09 52° NE 02:33:35 10° SE
Cosmos 1726 Rocket 4.0 02:25:46 10° NNW 02:30:03 48° W 02:32:24 24° SSW
Cosmos 1025 Rocket 3.1 02:27:56 24° SSW 02:30:29 75° WNW 02:34:50 10° NNE
CZ-2D R/B 4.5 02:28:16 10° NE 02:31:12 15° E 02:34:07 10° ESE
SL-08 R/B 3.9 02:26:33 10° SE 02:31:12 58° ENE 02:36:00 10° NNW
Cosmos 1461 4.3 02:30:02 10° WNW 02:32:59 19° WSW 02:33:22 19° SW
SL-16 R/B 3.3 02:28:19 10° SE 02:34:14 51° ENE 02:40:11 10° NNW
ATLAS CENTAUR R/B 1.5 02:31:16 10° WSW 02:35:24 70° NNW 02:39:17 10° ENE
Uosat 12 SS-18 rocket 4.5 02:31:59 15° SW 02:35:59 85° SE 02:41:54 10° ENE
Cosmos 540 Rocket 3.7 02:32:09 17° SW 02:36:09 66° NW 02:41:18 10° NNE
NOSS 3-1 (A) 4.0 02:30:12 10° W 02:36:38 73° NNW 02:44:04 10° ENE
ATLAS 2AS CENTAUR R/B 3.1 02:30:16 11° SW 02:38:00 80° SE 02:46:10 10° ENE
Cosmos 292 Rocket 4.3 02:36:57 21° S 02:39:57 50° ESE 02:44:40 10° NE
Cosmos 2278 4.3 02:35:13 10° NW 02:40:55 61° NE 02:46:37 10° ESE
Cosmos 1271 Rocket 3.9 02:39:03 10° N 02:42:38 40° ENE 02:46:12 10° SE
PSLV R/B 3.9 02:40:13 21° S 02:42:59 75° WSW 02:47:08 10° NNW
Cosmos 1809 Rocket 4.5 02:37:19 10° NNW 02:43:26 69° W 02:48:02 18° S
Cosmos 2369 Rocket 3.7 02:39:39 10° WNW 02:43:34 20° WSW 02:45:53 16° SW
Cosmos 1812 Rocket 3.7 02:40:18 10° NNW 02:44:44 77° ENE 02:48:24 15° SSE
JB-3 4.3 02:40:56 10° NNE 02:44:51 77° ESE 02:47:05 24° S
CZ-4B R/B 3.3 02:44:32 16° WSW 02:45:30 17° W 02:47:48 10° NW
PSLV R/B 4.0 02:43:23 10° NNE 02:48:03 61° ESE 02:51:13 19° S
Cosmos 1805 4.1 02:44:54 10° N 02:48:45 48° ENE 02:52:34 10° SE
Cosmos 773 Rocket 4.3 02:45:22 20° S 02:48:50 56° ESE 02:53:54 10° NE
Cosmos 2369 4.2 02:43:56 10° NW 02:49:41 66° NE 02:55:25 10° SE
Cosmos 1943 Rocket 3.2 02:45:58 10° NW 02:50:44 28° WSW 02:53:30 19° SSW
Cosmos 1689 Rocket 4.3 02:50:12 15° WSW 02:51:05 16° W 02:53:11 10° NW
Cosmos 1603 3.9 02:46:17 15° SW 02:51:08 74° NW 02:56:56 10° NE
Cosmos 1656 4.4 02:47:36 10° NW 02:53:00 55° NE 02:58:21 10° ESE
Cosmos 1515 3.6 02:51:11 24° SSW 02:53:23 85° WNW 02:57:14 10° NNE
Cosmos 2322 Rocket 4.3 02:49:27 10° NW 02:54:28 31° NNE 02:59:30 10° ENE
Cosmos 1238 Rocket 4.5 02:50:22 16° SW 02:54:37 48° WNW 03:00:50 10° N
NOSS 2-3 (E) 4.3 02:49:44 12° WSW 02:54:41 87° SSE 03:01:19 10° ENE
Helios 1A Rocket 3.2 02:52:16 10° NNE 02:56:20 59° ESE 02:59:06 19° S
Cosmos 839 Rocket 4.0 02:52:49 10° NW 02:58:58 72° SW 03:05:39 10° SE
Cosmos 2360 Rocket 4.4 02:56:21 10° NW 03:01:14 28° N 03:06:07 10° ENE
Cosmos 1980 Rocket 3.6 02:58:12 10° NW 03:03:40 43° NNE 03:09:06 10° ESE
Lacrosse 5 rocket 4.0 03:05:15 10° SE 03:05:59 10° SE 03:06:44 10° ESE
Cosmos 2058 Rocket 4.1 03:04:09 10° NNW 03:08:01 31° W 03:10:24 18° SW
Cosmos 405 Rocket 4.1 03:05:57 14° WSW 03:08:28 29° WNW 03:11:46 10° N
Okean 2 4.1 03:06:38 19° SW 03:09:21 45° WNW 03:13:22 10° N
Cosmos 1766 3.3 03:05:51 10° NNW 03:09:53 72° WSW 03:12:53 17° S
Nadezhda 3 Rocket 4.5 03:04:43 12° S 03:10:33 58° E 03:16:48 10° NNE
DNEPR-1 R/B 3.5 03:06:27 10° WNW 03:10:41 54° SW 03:14:49 10° SE
Cosmos 1624 Rocket 4.0 03:09:44 10° NW 03:14:54 62° WSW 03:20:03 10° SSE
SL-16 R/B 3.5 03:11:52 10° W 03:17:12 39° NNW 03:22:34 10° NE
Aureole 1 Rocket 3.6 03:14:50 16° S 03:18:05 45° ESE 03:21:35 10° NE
UNK 4.0 03:14:03 10° SSE 03:18:36 69° ENE 03:23:11 10° NNW
Cosmos 389 Rocket 3.8 03:16:27 10° N 03:19:59 42° ENE 03:23:27 10° SE
Cosmos 1626 Rocket 3.6 03:16:40 17° S 03:20:02 77° ESE 03:24:25 10° NNE
CZ-2C R/B 4.3 03:20:30 10° N 03:25:00 27° NW 03:29:34 10° WSW
SL-16 R/B 4.0 03:20:39 10° NW 03:25:53 35° NNE 03:31:06 10° E
Cosmos 1892 Rocket 4.2 03:23:02 17° SW 03:26:17 48° WNW 03:30:40 10° N
NOSS 2-3 (C) 4.5 03:21:15 10° WSW 03:26:40 80° NNW 03:33:28 10° ENE
IRS-P3 4.5 03:22:43 10° NNE 03:28:03 61° ESE 03:32:57 12° S
Cosmos 2098 Rocket 3.8 03:25:16 10° N 03:28:09 34° ENE 03:30:51 10° SE
Cosmos 2056 Rocket 3.7 03:23:37 10° NW 03:28:52 55° WSW 03:34:00 10° S
USA 215 4.1 03:24:27 10° ENE 03:30:20 34° SE 03:35:18 14° SSW
COSMOS 2406 4.0 03:26:23 13° S 03:31:15 43° ESE 03:36:40 10° NE
Cosmos 1066 Rocket 4.1 03:29:01 16° SSW 03:33:26 84° WNW 03:38:53 10° NNE
CBERS-1 4.4 03:31:27 10° NNE 03:36:32 61° ESE 03:41:28 11° S
RESURS DK-1 3.2 03:33:30 15° S 03:36:38 40° ESE 03:40:32 10° NE
Cosmos 2237 Rocket 4.1 03:33:57 10° WNW 03:38:55 29° N 03:43:52 10° NE
Cosmos 1470 3.2 03:35:36 10° N 03:39:30 62° ENE 03:43:23 10° SSE
Cosmos 1680 Rocket 3.6 03:37:27 15° SSW 03:41:54 72° ESE 03:47:09 10° NE
Cosmos 1602 Rocket 3.6 03:38:47 15° SSW 03:42:24 76° WNW 03:46:52 10° NNE
Cosmos 1544 3.3 03:39:01 10° NNW 03:42:39 55° W 03:45:48 13° S
Cosmos 2333 Rocket 4.2 03:38:20 10° WNW 03:43:20 29° N 03:48:21 10° NE
Cosmos 1821 Rocket 4.0 03:37:21 10° NNW 03:43:26 70° W 03:49:31 10° S
SL-27 R/B 3.7 03:40:32 11° S 03:43:37 36° ESE 03:47:00 10° NE
ADEOS Rocket 3.9 03:38:43 10° NNE 03:44:24 45° E 03:50:36 10° S
NOSS 2 (A) 4.5 03:41:42 13° WSW 03:44:33 87° NW 03:47:12 10° ENE
Resurs 1-4 Rocket 3.0 03:46:01 10° NNE 03:51:05 45° E 03:56:08 10° S
CENTAUR R/B 3.5 03:46:00 10° WNW 03:52:54 38° SW 04:00:19 10° S
H-2A R/B 3.8 03:49:49 10° N 03:53:07 27° WNW 03:56:20 10° WSW
IRS-1D 4.4 03:49:11 10° NNE 03:54:12 48° E 03:59:19 10° S
USA 161 2.9 03:52:28 10° SE 03:55:06 37° ENE 03:57:36 10° N
Meteor 1-4 Rocket 3.9 03:52:08 10° NW 03:55:21 26° W 03:57:49 14° SW
Cosmos 1953 2.4 03:52:57 10° NNW 03:56:55 59° W 04:00:52 10° S
ARIANE 5 R/B 3.4 03:53:56 10° NNE 03:59:03 49° E 04:04:05 10° S
Cosmos 1934 Rocket 4.1 03:53:20 10° NNW 03:59:35 69° W 04:05:52 10° S
COSMOS 2455 4.3 03:56:18 10° WNW 04:00:15 18° WSW 04:03:37 12° SW
Cosmos 1733 3.2 03:57:03 10° NNW 04:00:54 89° WSW 04:04:42 10° SSE
ADEOS 4.3 03:56:00 10° NNE 04:01:06 50° E 04:06:11 10° S
Cosmos-2242 3.1 03:57:32 10° NNW 04:02:00 88° ENE 04:06:24 10° SSE
Cosmos 1452 Rocket 3.6 03:58:26 10° NW 04:03:38 61° WSW 04:08:48 10° SSE
Cosmos 2219 Rocket 4.3 03:59:03 10° NW 04:03:53 28° N 04:08:43 10° ENE
Cosmos 1605 Rocket 4.0 03:57:59 10° NNW 04:04:16 83° WSW 04:10:26 10° S
NPP 3.7 03:59:58 10° NNE 04:05:25 86° WNW 04:10:50 10° SSW
Cosmos 921 Rocket 3.8 04:03:17 10° NW 04:07:21 34° WSW 04:11:25 10° SSW
USA 267 3.9 04:03:29 10° SSE 04:09:09 31° SW 04:14:51 10° WNW
SL-08 R/B 4.2 04:05:20 11° SSW 04:09:22 32° W 04:13:44 10° NNW
Cosmos 1943 3.8 04:04:23 10° WSW 04:09:54 51° NW 04:15:26 10° NE
NOSS 3-1 (C) 4.2 04:04:35 10° WNW 04:11:20 73° NNE 04:19:06 10° E
CZ-2D R/B 2.6 04:07:09 10° NNE 04:12:28 60° ESE 04:17:40 10° S
Cosmos 1697 Rocket 2.7 04:07:19 10° NW 04:12:58 80° SW 04:18:36 10° SSE
Cosmos 1842 Rocket 4.1 04:10:17 10° N 04:14:40 63° ENE 04:19:04 10° SSE
ATLAS CENTAUR R/B 2.4 04:11:00 10° WNW 04:14:49 42° N 04:18:27 10° ENE
GENESIS II 4.3 04:11:46 10° WNW 04:15:43 54° SW 04:19:34 10° SE
Cosmos 1758 4.0 04:12:01 10° NNW 04:15:50 38° W 04:19:39 10° SSW
Cosmos 923 Rocket 4.3 04:11:37 11° SW 04:16:48 65° NW 04:22:08 10° NNE
Cosmos 1420 Rocket 4.0 04:11:59 10° NW 04:17:18 68° WSW 04:22:34 10° SSE
SL-16 R/B 2.8 04:12:00 10° S 04:17:59 50° W 04:24:01 10° NNW
USA 229 DEB 3.9 04:11:27 10° WNW 04:18:32 87° NNE 04:25:46 10° ESE
Cosmos 1271 Rocket 3.6 04:15:16 10° NNW 04:18:37 30° W 04:21:56 10° SSW
USA 229 3.9 04:11:33 10° WNW 04:18:38 87° NNE 04:25:52 10° ESE
Cosmos 2221 4.2 04:17:25 10° N 04:21:29 38° ENE 04:25:29 10° SE
Cosmos 1805 4.4 04:21:15 10° NNW 04:24:37 27° W 04:27:58 10° SSW
Cosmos 2278 4.1 04:19:35 10° NW 04:25:01 45° WSW 04:30:25 10° S
Cosmos 1758 Rocket 3.6 04:21:35 10° S 04:25:56 84° E 04:30:17 10° NNE
MOZ.5/SAFIR/RUBIN 5/SL-8 3.8 04:23:10 10° S 04:27:51 74° WSW 04:32:36 10° NNW
NOSS 3-4 (A) 3.7 04:21:43 10° SW 04:28:06 78° SSE 04:34:53 10° ENE
NOSS 3-4 (C) 3.7 04:21:49 10° SW 04:28:12 78° SSE 04:34:59 10° ENE
NOSS 3-1 (A) 4.2 04:21:27 10° WNW 04:28:13 72° NNE 04:35:59 10° E
ATLAS 2AS CENTAUR R/B 3.4 04:21:21 10° W 04:29:28 71° N 04:37:34 10° ENE
Helios 1A Rocket 4.3 04:27:53 10° N 04:31:22 28° NW 04:34:51 10° WSW
Cosmos 2369 4.2 04:28:23 10° NW 04:33:43 41° WSW 04:39:03 10° S
Cosmos 192 4.4 04:29:26 10° SW 04:34:22 79° NW 04:39:20 10° NNE
Cosmos 1110 Rocket 4.4 04:29:26 10° NNW 04:34:48 74° NE 04:40:08 10° SE
OPS 6432 4.1 04:32:59 10° WSW 04:36:01 81° SSE 04:39:12 10° ENE
Cosmos 1656 3.8 04:31:26 10° NW 04:36:41 48° WSW 04:41:52 10° S
Meteor 1-21 4.5 04:31:24 10° SSW 04:36:55 59° WNW 04:42:32 10° NNE
Cosmos 2100 Rocket 4.1 04:32:07 10° NNW 04:38:24 85° ENE 04:44:35 10° SSE
Cosmos 2322 Rocket 3.0 04:33:56 10° NW 04:39:34 60° NE 04:45:12 10° ESE
Cosmos 2173 Rocket 4.2 04:34:07 10° NNW 04:40:30 83° ENE 04:46:45 10° SSE
Cosmos 1818 4.4 04:36:48 10° SSW 04:41:58 45° SE 04:47:09 10° ENE
Lacrosse 5 rocket 2.9 04:40:03 10° SSW 04:44:07 30° SSE 04:48:09 10° E
IRS-1C 4.3 04:39:31 10° NNE 04:44:50 64° WNW 04:50:06 10° SW
Cosmos 2360 Rocket 3.7 04:41:10 10° NW 04:46:36 43° NNE 04:52:01 10° ESE
Cosmos 1980 Rocket 2.2 04:42:23 10° NW 04:48:07 74° SW 04:53:47 10° SSE
